This demonstration page uses our WeatherBlox Daily Observations layout. Learn more.

Left ArrowRight Arrow

39.08367, -84.50855

Hourly Observations for December 7, 2020

Temp ( °F °C ) Dew Point ( °F °C ) Humidity (%) Winds ( mph kmh ) Pressure ( in mb ) Visibility ( mi km ) Precip ( " mm )
12:53 am 00:53 Cloudy 36 2.2 26 -3.3 67 67 NNE 8 13 29.97 1015 10 16 N/A
1:53 am 01:53 Cloudy 35 1.7 25 -3.9 67 67 NNE 10 17 29.95 1014 10 16 N/A
2:53 am 02:53 Cloudy 34 1.1 25 -3.9 70 70 NNE 8 13 29.96 1015 10 16 N/A
3:53 am 03:53 Cloudy 34 1.1 25 -3.9 70 70 NNE 7 11 29.96 1015 10 16 N/A
4:53 am 04:53 Cloudy 33 0.6 24 -4.4 70 70 NNE 12 19 29.96 1015 10 16 N/A
5:45 am 05:45 Cloudy 33 0.6 24 -4.4 70 70 N 10 17 29.99 1015 10 16 N/A
5:53 am 05:53 Cloudy 33 0.6 24 -4.4 70 70 NNE 7 11 29.96 1015 10 16 N/A
6:02 am 06:02 Cloudy 33 0.6 24 -4.4 70 70 NNE 6 9 29.99 1015 10 16 N/A
6:21 am 06:21 Cloudy 33 0.6 24 -4.4 70 70 N 8 13 29.99 1015 10 16 N/A
6:53 am 06:53 Cloudy 33 0.6 23 -5 66 66 NNE 10 17 29.98 1015 10 16 N/A
7:53 am 07:53 Cloudy 33 0.6 23 -5 66 66 N 10 17 30.00 1016 10 16 N/A
8:53 am 08:53 Cloudy 33 0.6 23 -5 66 66 N 9 15 30.01 1016 10 16 N/A
9:53 am 09:53 Cloudy 33 0.6 22 -5.6 64 64 N 10 17 30.03 1017 10 16 N/A
10:53 am 10:53 Cloudy 34 1.1 22 -5.6 61 61 N 10 17 30.04 1017 10 16 N/A
11:53 am 11:53 Cloudy 34 1.1 22 -5.6 61 61 N 9 15 30.04 1017 10 16 N/A
12:53 pm 12:53 Cloudy 34 1.1 21 -6.1 59 59 NW 7 11 30.03 1017 10 16 N/A
1:53 pm 13:53 Cloudy 34 1.1 20 -6.7 56 56 NW 7 11 30.02 1017 10 16 N/A
2:53 pm 14:53 Cloudy 36 2.2 21 -6.1 55 55 NW 8 13 30.03 1017 10 16 N/A
3:53 pm 15:53 Cloudy 36 2.2 21 -6.1 55 55 VRB 3 6 30.04 1017 10 16 N/A
4:53 pm 16:53 Cloudy 34 1.1 21 -6.1 59 59 VRB 6 9 30.06 1018 10 16 N/A
5:53 pm 17:53 Mostly Cloudy 34 1.1 21 -6.1 59 59 WNW 7 11 30.08 1019 10 16 N/A
6:53 pm 18:53 Cloudy 34 1.1 20 -6.7 56 56 NW 7 11 30.09 1019 10 16 N/A
7:53 pm 19:53 Cloudy 32 undefined 21 -6.1 64 64 NW 8 13 30.11 1020 10 16 N/A
8:53 pm 20:53 Cloudy 32 undefined 21 -6.1 64 64 NW 8 13 30.12 1020 10 16 N/A
9:53 pm 21:53 Cloudy 32 undefined 21 -6.1 64 64 NW 7 11 30.12 1020 10 16 N/A
10:53 pm 22:53 Cloudy 32 undefined 21 -6.1 64 64 WNW 6 9 30.13 1020 10 16 N/A
11:53 pm 23:53 Cloudy 32 undefined 21 -6.1 64 64 WNW 7 11 30.14 1021 10 16 N/A

Powered by AerisWeather